Regional Weather Roundup
Issued by NWS Northern Indiana

Home | Current Version | Previous Version | Text Only | Print | Product List | Glossary On
Versions: 1 2 3 4 5 6 7 8 9 10 11 12 13 14 15 16 17 18 19 20 21 22 23 24 25 26 27 28 29 30 31 32 33 34 35 36 37 38 39 40 41 42 43 44 45 46 47 48 49 50
000
ASUS43 KIWX 241110
RWRIWX

KIWX WEATHER ROUNDUP
NATIONAL WEATHER SERVICE NORTHERN INDIANA
600 AM EST TUE JAN 24 2017

NOTE: "FAIR" INDICATES FEW OR NO CLOUDS BELOW 12,000 FEET WITH NO
SIGNIFICANT WEATHER AND/OR OBSTRUCTIONS TO VISIBILITY.

* THESE STATIONS ARE NOT UNDER NWS QUALITY CONTROL. THEY ALSO MAY NOT
  REPORT WEATHER SUCH AS PRECIPITATION OR FOG.

INZ001>027-241200-
NORTHERN INDIANA

CITY           SKY/WX    TMP DP  RH WIND       PRES   REMARKS
GARY*          CLOUDY    39  34  81 NW10      29.84R
VALPARAISO     CLOUDY    39  35  86 NW7       29.83R
LAPORTE*       CLOUDY    37  35  92 NW7       29.82S
KNOX*          CLOUDY    36  25  64 NW7       29.82R
SOUTH BEND     CLOUDY    37  35  92 NW10      29.81R
GOSHEN         CLOUDY    39  35  86 NW12      29.78S
ROCHESTER*     CLOUDY    41  37  87 NW7       29.82R
WARSAW*        CLOUDY    37  34  87 NW8       29.79S FOG
FORT WAYNE     CLOUDY    40  37  89 NW8       29.77R
PERU/GRISSOM   CLOUDY    39  39 100 NW10      29.80R
MARION*        CLOUDY    37  37 100 NW8       29.80R FOG

$$
INZ028>050-241200-
CENTRAL INDIANA

CITY           SKY/WX    TMP DP  RH WIND       PRES   REMARKS
LAFAYETTE      CLOUDY    38  36  92 NW5       29.83S
KOKOMO*        CLOUDY    38  37  97 NW12      29.81R FOG
MUNCIE*        CLOUDY    40  38  93 NW13      29.78R FOG
INDIANAPOLIS   CLOUDY    40  34  79 NW13      29.82R

$$
MIZ043>046-050>051-056>058-064>065-071>073-077>080-241200-
SOUTHWEST LOWER MICHIGAN

CITY           SKY/WX    TMP DP  RH WIND       PRES   REMARKS
BATTLE CREEK   CLOUDY    38  38 100 NW10      29.77R FOG
BENTON HARBOR  CLOUDY    39  36  89 NW5       29.81S
COLDWATER*     CLOUDY    39  39 100 NW8       29.76S FOG
HILLSDALE*     RAIN      36  36 100 NW7       29.73R
HOLLAND        CLOUDY    38  36  92 NW9       29.80R
GRAND RAPIDS   CLOUDY    38  36  92 NW9       29.77S
KALAMAZOO      CLOUDY    39  35  86 NW13G18   29.77S
STURGIS*       DRIZZLE   37  37 100 NW7       29.76S
THREE RIVERS*  CLOUDY    39  37  95 NW9       29.78S FOG

$$
OHZ001>008-015>018-024>025-241200-
NORTHWEST OHIO

CITY           SKY/WX    TMP DP  RH WIND       PRES   REMARKS
DEFIANCE       LGT RAIN  39  38  96 NW6       29.74F
FINDLAY        LGT RAIN  38  35  89 N6        29.72F
TOLEDO EXPRESS LGT RAIN  37  37 100 CALM      29.73F FOG
TOLEDO METCALF CLOUDY    38  36  92 CALM      29.75R FOG
LIMA           CLOUDY    39  39 100 NW5       29.72F FOG

$$
AND FOR LAKE MICHIGAN COASTAL AND OPEN LAKE BUOY OBSERVATIONS

STATION/POSITION TEMP    WIND        PRES    VSBY  WAVE
                 AIR SEA DIR/SP/G                  HT/PER
                 (F)     (DEG/KT/KT) (MB)    (MI)  (FT/S)
CALUMET HARBOR    38     330/  5/  8 1010.0R
MICHIGAN CITY     36     270/ 15/ 16   N/A
BURNS HARBOR      36     320/  8/ 13 1010.8

$$
&&




USA.gov is the U.S. government's official web portal to all federal, state and local government web resources and services.